Location: Heisede
(52.2582°N, 9.8523°E)
Time: 00:13:54
(UTC+00:00)

Cosmos 2082 Rocket - Pass Details

Date: 13 January 2026
Orbit: 832 x 853 km, 71.0° (Epoch: 9 February)

Event Time Altitude Azimuth Distance (km) Brightness Sun altitude
Exits shadow 03:41:26 20° 11° (N) 1,871 4.1 -33.2°
Maximum altitude 03:43:01 22° 34° (NE) 1,762 4.2 -33.0°
Drops below altitude 10° 03:47:23 10° 85° (E) 2,472 5.5 -32.3°
Sets 03:50:24 0° 100° (E) 3,408 6.4 -31.8°
